• In Portugal
  • List of Countries
  • For 7 days
  • Water Temperature
  • Satellite Maps
  • Weather Map
  • Weather Widgets
  • user-avatar
    Login

    Hourly Weather Sur

    Today, 23 September, Sunday

    Time Temperature Precipitation Wind Pressure Humidity
    00:00 +27°C° 0 mm 2 mps 760 mmHg 75%
    01:00 +27°C° 0 mm 2 mps 760 mmHg 76%
    02:00 +26°C° 0 mm 1 mps 760 mmHg 78%
    03:00 +26°C° 0 mm 1 mps 760 mmHg 78%
    04:00 +26°C° 0 mm 1 mps 760 mmHg 78%
    05:00 +25°C° 0 mm 1 mps 760 mmHg 77%
    06:00 +27°C° 0 mm 1 mps 761 mmHg 68%
    07:00 +29°C° 0 mm 1 mps 761 mmHg 59%
    08:00 +30°C° 0 mm 1 mps 760 mmHg 50%
    09:00 +32°C° 0 mm 2 mps 761 mmHg 44%
    10:00 +34°C° 0 mm 2 mps 761 mmHg 38%
    11:00 +35°C° 0 mm 3 mps 761 mmHg 33%
    12:00 +36°C° 0 mm 3 mps 761 mmHg 34%
    13:00 +36°C° 0 mm 4 mps 760 mmHg 35%
    14:00 +36°C° 0 mm 4 mps 760 mmHg 36%
    15:00 +35°C° 0 mm 4 mps 760 mmHg 41%
    16:00 +34°C° 0 mm 4 mps 760 mmHg 46%
    17:00 +33°C° 0 mm 4 mps 760 mmHg 51%
    18:00 +31°C° 0 mm 3 mps 760 mmHg 57%
    19:00 +30°C° 0 mm 3 mps 760 mmHg 63%
    20:00 +29°C° 0 mm 2 mps 760 mmHg 69%
    21:00 +28°C° 0 mm 2 mps 760 mmHg 70%
    22:00 +28°C° 0 mm 2 mps 760 mmHg 71%
    23:00 +28°C° 0 mm 2 mps 761 mmHg 73%

    Tomorrow, 24 September, Monday

    Time Temperature Precipitation Wind Pressure Humidity
    00:00 +27°C° 0 mm 2 mps 761 mmHg 73%
    01:00 +27°C° 0 mm 2 mps 760 mmHg 74%
    02:00 +27°C° 0 mm 2 mps 760 mmHg 75%
    03:00 +26°C° 0 mm 1 mps 760 mmHg 75%
    04:00 +26°C° 0 mm 1 mps 760 mmHg 75%
    05:00 +26°C° 0 mm 1 mps 760 mmHg 76%
    06:00 +27°C° 0 mm 1 mps 760 mmHg 67%
    07:00 +29°C° 0 mm 1 mps 760 mmHg 58%
    08:00 +29°C° 0 mm 0 mps 761 mmHg 50%
    09:00 +33°C° 0 mm 1 mps 760 mmHg 42%
    10:00 +35°C° 0 mm 2 mps 760 mmHg 35%
    11:00 +37°C° 0 mm 2 mps 760 mmHg 28%
    12:00 +37°C° 0 mm 3 mps 760 mmHg 29%
    13:00 +37°C° 0 mm 3 mps 759 mmHg 31%
    14:00 +38°C° 0 mm 4 mps 759 mmHg 32%
    15:00 +37°C° 0 mm 4 mps 759 mmHg 37%
    16:00 +35°C° 0 mm 4 mps 758 mmHg 43%
    17:00 +34°C° 0 mm 3 mps 758 mmHg 48%
    18:00 +33°C° 0 mm 3 mps 758 mmHg 54%
    19:00 +31°C° 0 mm 3 mps 759 mmHg 59%
    20:00 +30°C° 0 mm 2 mps 759 mmHg 65%
    21:00 +30°C° 0 mm 2 mps 759 mmHg 66%
    22:00 +29°C° 0 mm 2 mps 759 mmHg 68%
    23:00 +29°C° 0 mm 2 mps 759 mmHg 69%

    Day after tomorrow, 25 September, Tuesday

    Time Temperature Precipitation Wind Pressure Humidity
    00:00 +28°C° 0 mm 1 mps 759 mmHg 71%
    01:00 +28°C° 0 mm 1 mps 759 mmHg 73%
    02:00 +27°C° 0 mm 1 mps 759 mmHg 75%
    03:00 +27°C° 0 mm 1 mps 758 mmHg 76%
    04:00 +26°C° 0 mm 1 mps 758 mmHg 77%
    05:00 +26°C° 0 mm 1 mps 758 mmHg 79%
    06:00 +28°C° 0 mm 1 mps 758 mmHg 70%
    07:00 +29°C° 0 mm 1 mps 759 mmHg 61%
    08:00 +31°C° 0 mm 1 mps 759 mmHg 52%
    09:00 +32°C° 0 mm 1 mps 759 mmHg 46%
    10:00 +35°C° 0 mm 2 mps 758 mmHg 40%
    11:00 +36°C° 0 mm 3 mps 758 mmHg 34%
    12:00 +36°C° 0 mm 3 mps 758 mmHg 36%
    13:00 +36°C° 0 mm 3 mps 757 mmHg 38%
    14:00 +36°C° 0 mm 4 mps 757 mmHg 40%
    15:00 +35°C° 0 mm 3 mps 757 mmHg 45%
    16:00 +34°C° 0 mm 3 mps 757 mmHg 50%
    17:00 +33°C° 0 mm 3 mps 756 mmHg 56%
    18:00 +31°C° 0 mm 2 mps 757 mmHg 61%
    19:00 +30°C° 0 mm 2 mps 757 mmHg 67%
    20:00 +29°C° 0 mm 1 mps 757 mmHg 73%
    21:00 +28°C° 0 mm 1 mps 757 mmHg 76%
    22:00 +27°C° 0 mm 1 mps 757 mmHg 80%
    23:00 +27°C° 0 mm 2 mps 757 mmHg 83%

    26 September, Wednesday

    Time Temperature Precipitation Wind Pressure Humidity
    00:00 +26°C° 0 mm 2 mps 757 mmHg 85%
    01:00 +26°C° 0 mm 2 mps 757 mmHg 86%
    02:00 +26°C° 0 mm 2 mps 757 mmHg 88%
    03:00 +25°C° 0 mm 2 mps 757 mmHg 88%
    04:00 +25°C° 0 mm 2 mps 757 mmHg 89%
    05:00 +25°C° 0 mm 2 mps 757 mmHg 89%
    06:00 +26°C° 0 mm 2 mps 757 mmHg 81%
    07:00 +28°C° 0 mm 2 mps 757 mmHg 72%
    08:00 +29°C° 0 mm 3 mps 757 mmHg 64%
    09:00 +30°C° 0 mm 3 mps 757 mmHg 57%
    10:00 +32°C° 0 mm 4 mps 757 mmHg 50%
    11:00 +34°C° 0 mm 4 mps 757 mmHg 44%
    12:00 +34°C° 0 mm 4 mps 757 mmHg 44%
    13:00 +34°C° 0 mm 4 mps 756 mmHg 45%
    14:00 +34°C° 0 mm 4 mps 756 mmHg 46%
    15:00 +33°C° 0 mm 4 mps 756 mmHg 49%
    16:00 +32°C° 0 mm 4 mps 756 mmHg 53%
    17:00 +30°C° 0 mm 3 mps 756 mmHg 57%
    18:00 +29°C° 0 mm 3 mps 756 mmHg 63%
    19:00 +28°C° 0 mm 2 mps 756 mmHg 68%
    20:00 +27°C° 0 mm 2 mps 757 mmHg 74%
    21:00 +27°C° 0 mm 2 mps 756 mmHg 76%
    22:00 +26°C° 0 mm 2 mps 756 mmHg 78%
    23:00 +26°C° 0 mm 2 mps 756 mmHg 79%

    27 September, Thursday

    Time Temperature Precipitation Wind Pressure Humidity
    00:00 +25°C° 0 mm 3 mps 756 mmHg 79%
    01:00 +25°C° 0 mm 3 mps 756 mmHg 79%
    02:00 +25°C° 0 mm 4 mps 756 mmHg 78%
    03:00 +25°C° 0 mm 4 mps 756 mmHg 78%
    04:00 +23°C° 0 mm 4 mps 756 mmHg 78%
    05:00 +23°C° 0 mm 4 mps 756 mmHg 78%
    06:00 +25°C° 0.1 mm 5 mps 756 mmHg 73%
    07:00 +26°C° 0.1 mm 5 mps 756 mmHg 68%
    08:00 +28°C° 0.1 mm 5 mps 757 mmHg 63%
    09:00 +29°C° 0.1 mm 6 mps 757 mmHg 61%
    10:00 +29°C° 0.1 mm 6 mps 757 mmHg 58%
    11:00 +30°C° 0.1 mm 6 mps 757 mmHg 56%
    12:00 +32°C° 0.1 mm 7 mps 757 mmHg 56%
    13:00 +32°C° 0.1 mm 7 mps 757 mmHg 55%
    14:00 +32°C° 0.1 mm 7 mps 757 mmHg 55%
    15:00 +30°C° 0 mm 6 mps 757 mmHg 59%
    16:00 +29°C° 0 mm 6 mps 757 mmHg 64%
    17:00 +28°C° 0 mm 5 mps 758 mmHg 68%
    18:00 +27°C° 0 mm 4 mps 758 mmHg 72%
    19:00 +27°C° 0 mm 4 mps 759 mmHg 75%
    20:00 +26°C° 0 mm 3 mps 759 mmHg 79%
    21:00 +26°C° 0 mm 3 mps 759 mmHg 80%
    22:00 +25°C° 0 mm 3 mps 760 mmHg 81%
    23:00 +25°C° 0 mm 3 mps 760 mmHg 82%

    28 September, Friday

    Time Temperature Precipitation Wind Pressure Humidity
    00:00 +25°C° 0 mm 3 mps 760 mmHg 82%
    01:00 +24°C° 0 mm 2 mps 760 mmHg 82%
    02:00 +24°C° 0 mm 2 mps 760 mmHg 82%
    03:00 +24°C° 0 mm 2 mps 760 mmHg 82%
    04:00 +24°C° 0 mm 2 mps 760 mmHg 82%
    05:00 +23°C° 0 mm 2 mps 760 mmHg 82%
    06:00 +25°C° 0 mm 2 mps 760 mmHg 75%
    07:00 +26°C° 0 mm 2 mps 761 mmHg 68%
    08:00 +27°C° 0 mm 2 mps 761 mmHg 61%
    09:00 +28°C° 0 mm 2 mps 761 mmHg 55%
    10:00 +30°C° 0 mm 2 mps 761 mmHg 49%
    11:00 +31°C° 0 mm 3 mps 761 mmHg 43%
    12:00 +31°C° 0 mm 3 mps 760 mmHg 44%
    13:00 +31°C° 0 mm 3 mps 760 mmHg 45%
    14:00 +32°C° 0 mm 4 mps 760 mmHg 46%
    15:00 +30°C° 0 mm 3 mps 760 mmHg 51%
    16:00 +30°C° 0 mm 3 mps 760 mmHg 55%
    17:00 +29°C° 0 mm 2 mps 760 mmHg 60%
    18:00 +28°C° 0 mm 2 mps 760 mmHg 63%
    19:00 +27°C° 0 mm 2 mps 761 mmHg 67%
    20:00 +26°C° 0 mm 2 mps 761 mmHg 70%
    21:00 +26°C° 0 mm 2 mps 761 mmHg 72%
    22:00 +26°C° 0 mm 1 mps 761 mmHg 74%
    23:00 +25°C° 0 mm 1 mps 761 mmHg 77%
    Show more